Weather in Telyatovo

Russia / Tver Oblast     58°23′36″N   37°17′32″E
temp.,
°C
wind,
m/s
gust,
m/s
humid.,
%
clouds,
%
prec.,
mm/h
press.,
hPa
HPBL,
m
19 april, mon
mon1900:00+4ene31075100 0.0 1028508
03:00+3ene398198 0.0 1029380
06:00+1ene398381 0.0 1029388
09:00+4e58655 0.0 1030650
12:00+7e68475 0.0 10301188
15:00+8e58380 0.0 10291456
18:00+7e48455 0.0 10281510
21:00+4e4126242 0.0 1029381
20 april, tue
tue2000:00+1e311714 0.0 1029331
03:000e311777 0.0 1029312
06:00−1e41176100 0.0 1028393
09:00+2e51056100 0.0 1028565
12:00+6e6949100 0.0 10261019
15:00+8e51049100 0.0 10241447
18:00+5ese51278100 0.1 10221100
21:00+5ese4117793 0.7 10201098
21 april, wed
wed2100:00+4e41172100 0.0 1017791
03:00+3e51266100 0.3 1014823
06:000e61491100 1.3 1010803
09:00+1e61596100 6.2 1006775
12:00+1e51497100 4.3 1004700
15:00+1e41398100 6.0 1002501
18:00+3ese310100100 1.8 1000430
21:00+3wsw5899100 2.9 1001571
22 april, thu
thu2200:00+1sw51091100 0.1 1005968
03:00+2ssw51393100 0.1 1007711
06:00+3ssw51096100 0.0 1009691
09:00+3ssw51098100 0.1 1011589
12:00+4ssw41094100 0.0 1012541
15:00+9ssw487836 0.1 10131121
18:00+8s497920 0.1 1014634
21:00+5sse4128877 0.1 1014350
23 april, fri
fri2300:00+4s4149053 0.0 1014361
03:00+5s3109289 0.1 1014288
06:00+4s3997100 0.1 1014223
09:00+8s41186100 0.1 1013532
12:00+9s3989100 0.2 1013805
15:00+13sse61275100 0.6 10111546
18:00+12s71674100 1.2 10091532
21:00+5w3892100 2.8 1013401